Location: Saint-Palais-sur-Mer
(45.6429°N, 1.0859°W)
Time: 23:59:54
(UTC+01:00)

Tiros 1 despin weight - Pass Details

Date: 13 February 2026
Orbit: 556 x 593 km, 48.2° (Epoch: 13 March)

Event Time Altitude Azimuth Distance (km) Brightness Sun altitude
Rises 17:53:20 0° 228° (SW) 2,725 ? 4.8°
Reaches altitude 10° 17:55:38 10° 222° (SW) 1,831 ? 4.5°
Maximum altitude 17:59:37 45° 150° (SSE) 765 ? 3.8°
Drops below altitude 10° 18:03:37 10° 77° (ENE) 1,839 ? 3.2°
Sets 18:05:56 0° 71° (ENE) 2,738 ? 2.8°
